Orbital Elements at Epoch 2459200.5 (2020-Dec-17.0) TDB
Reference: JPL 14 (heliocentric ecliptic J2000)
Element | Value | Uncertainty (1-sigma) | Units |
e | .1616135799703375 | 6.4707e-08 | |
a | 2.578012824935134 | 1.8368e-08 | au |
q | 2.161370943087924 | 1.6495e-07 | au |
i | 3.4683079054112 | 6.829e-06 | deg |
node | 151.9480847410799 | 9.6252e-05 | deg |
peri | 228.1061526888901 | 9.833e-05 | deg |
M | 221.2679544360856 | 2.715e-05 | deg |
tp | 2459783.140039323713 (2022-Jul-22.64003932) | 0.00011876 | TDB |
period | 1511.910339849374 4.14 | 1.6158e-05 4.424e-08 | d yr |
n | .2381093577519057 | 2.5447e-09 | deg/d |
Q | 2.994654706782344 | 2.1336e-08 | au |
|
| | Orbit Determination Parameters
Additional Information
|